#timestamp,LO_Frequency,Hit,StdDev 
1561791615.9,286046998.7,P
1561791635.7,286046998.1,N
1561791655.6,286046998.2,N
1561791675.4,286047000.5,N
1561791695.2,286046998.5,N
1561791715.1,286046999.2,N
1561791716.0,286046999.2,N
1561791735.8,286046998.9,N
1561791755.7,286046999.3,N
1561791775.5,286046998.9,N
1561791795.3,286046996.5,Y
1561791815.2,286046998.8,P
1561791835.0,286046999.6,N
1561791835.9,286046999.6,N
1561791855.8,286046996.5,Y
1561791875.6,286046999.3,P
1561791895.4,286046999.1,P
1561791915.3,286046996.7,P
1561791935.1,286046999.5,N
1561791955.9,286046996.9,N
1561791975.7,286046996.6,N
1561791995.5,286046999.5,N
1561792015.4,286046999.2,N
1561792035.2,286046998.8,N
1561792055.1,286046999.6,N
1561792056.0,286046999.6,N
1561792075.8,286046996.5,Y
1561792095.6,286046998.5,P
1561792115.5,286047000.9,P
1561792135.3,286047000.3,N
1561792155.1,286046998.8,N
1561792175.6,286046998.4,N
1561792195.4,286046999.0,N
1561792215.2,286046998.8,N
1561792235.1,286046999.1,N
1561792236.0,286046999.1,N
1561792255.8,286046999.4,N
1561792275.7,286046999.3,N
1561792295.5,286046996.6,Y
1561792315.3,286047000.3,P
1561792335.2,286047000.6,N
1561792355.0,286046998.2,P
1561792355.9,286046998.2,N
1561792375.8,286046999.9,N
1561792395.6,286047000.1,N
1561792415.4,286047000.2,N
1561792435.3,286046999.9,N
1561792455.1,286047000.0,N
1561792475.8,286047000.6,N
1561792495.7,286047000.3,N
1561792515.5,286047000.7,N
1561792535.4,286047000.4,N
1561792555.2,286046999.9,N
1561792575.0,286047002.8,Y
1561792575.9,286047002.8,P
1561792595.8,286046999.9,N
1561792615.6,286046999.9,N
1561792635.4,286047000.3,N
1561792655.3,286046999.9,N
1561792675.1,286047000.1,N
1561792695.9,286047002.1,N
1561792715.7,286047002.7,N
1561792735.5,286047000.2,N
1561792755.4,286047000.1,N
1561792775.2,286047002.2,N
1561792795.1,286047002.4,N
1561792796.0,286047002.4,N
1561792815.8,286047000.1,N
1561792835.6,286046999.9,N
1561792855.5,286046999.9,N
1561792875.3,286047000.5,N
1561792895.2,286047000.5,N
1561792915.9,286047002.2,N
1561792935.7,286047000.8,N
1561792955.6,286046998.1,N
1561792975.4,286046999.8,N
1561792995.2,286047000.2,N
1561793015.1,286047002.4,N
1561793016.0,286047002.4,N
1561793035.8,286047000.3,N
1561793055.7,286047002.3,N
1561793075.5,286047002.7,N
1561793095.3,286047002.3,N
1561793115.2,286047001.0,N
1561793135.0,286046999.4,N
1561793135.9,286046999.4,N
1561793155.8,286047000.8,N
1561793175.6,286046999.9,N
1561793195.4,286047001.9,N
1561793215.3,286047004.0,Y
1561793235.1,286047002.6,P
1561793255.8,286047002.5,P
1561793275.7,286047001.9,N
1561793295.5,286047000.2,N
1561793315.4,286047000.2,N
1561793335.2,286046999.9,N
1561793355.0,286047000.1,N
1561793355.9,286047000.1,N
1561793375.8,286047002.2,N
1561793395.6,286047002.3,N
1561793415.5,286047001.9,N
1561793435.3,286047001.9,N
1561793455.1,286047002.2,N
1561793475.9,286047001.9,N
1561793495.7,286047002.2,N
1561793515.5,286047001.5,N
1561793535.4,286046999.9,N
1561793555.2,286047001.9,N
1561793575.1,286047002.0,N
1561793576.0,286047002.0,N
1561793595.8,286047002.3,N
1561793615.6,286047002.2,N
1561793635.5,286047002.4,N
1561793655.3,286047000.4,N
1561793675.2,286046999.7,N
1561793695.9,286047002.3,N
1561793715.7,286047002.0,N
1561793735.6,286047001.7,N
1561793755.4,286047002.5,N
1561793775.2,286047002.4,N
1561793795.1,286047005.9,Y
1561793796.0,286047005.9,P
1561793815.8,286047001.5,N
1561793835.7,286047000.1,N
1561793855.5,286047000.4,N
1561793875.3,286047001.2,N
1561793895.2,286047000.0,N
1561793915.0,286047000.1,N
1561793915.9,286047000.1,N
1561793935.8,286046999.9,N
1561793955.6,286047002.5,N
1561793975.5,286047000.7,N
1561793995.3,286047002.4,N
1561794015.1,286047000.9,N
1561794035.9,286046998.3,N
1561794055.7,286047000.0,N
1561794075.5,286047002.2,N
1561794095.4,286047002.7,N
1561794115.2,286047002.3,N
1561794135.1,286047002.4,N
1561794136.0,286047002.4,N
1561794155.8,286046999.7,N
1561794175.6,286047001.3,N
1561794195.5,286047002.4,N
1561794215.3,286047000.8,N
1561794235.1,286047000.9,N
1561794255.9,286047000.5,N
1561794275.7,286046999.9,N
1561794295.6,286047000.3,N
1561794315.4,286047000.7,N
1561794335.2,286047000.3,N
1561794355.1,286047002.2,N
1561794356.0,286047002.2,N
1561794375.8,286047000.2,N
1561794395.7,286047004.2,Y
1561794415.5,286047002.7,P
1561794435.3,286047000.2,N
1561794455.2,286047002.7,N
1561794475.0,286047000.0,N
1561794475.9,286047000.0,N
1561794495.8,286047000.2,N
1561794515.6,286047000.2,N
1561794535.4,286047002.4,N
1561794555.3,286047002.3,N
1561794575.1,286047002.1,N
1561794595.9,286047004.4,Y
1561794615.7,286047002.5,P
1561794635.5,286047002.8,P
1561794655.4,286047001.0,N
1561794675.2,286047000.8,N
1561794695.0,286047000.5,N
1561794695.9,286047000.5,N
1561794715.8,286046998.2,N
1561794735.6,286047000.0,N
1561794755.5,286047000.3,N
1561794775.3,286046998.3,N
1561794795.1,286046999.1,N
1561794815.9,286046998.9,N
1561794835.7,286046998.3,N
1561794855.6,286047001.1,N
1561794875.4,286047001.1,N
1561794895.2,286047000.7,N
1561794915.1,286047003.4,N
1561794916.0,286047003.4,N
1561794935.8,286047004.7,N
1561794955.6,286047006.0,Y
1561794975.5,286047001.5,P
1561794995.3,286047002.0,P
1561795015.2,286047002.3,P
1561795035.9,286047002.8,Y
1561795055.7,286047001.2,P
1561795075.6,286046998.9,P
1561795095.4,286046999.4,N
1561795115.3,286046995.0,Y
1561795135.1,286046993.7,P
1561795155.8,286046993.4,N
1561795175.7,286046993.9,N
1561795195.5,286046994.5,N
